Погода в Габесе

Тунис     33°54′40″N   10°03′32″E
темп.,
°C
ветер,
м/с
пор.,
м/с
влажн.,
%
обл.,
%
осадки,
мм/ч
давл.,
гПа
погр.,
м
15 августа, пн
пн1501:00+31в23520 0.0 100998
04:00+29сз33665 0.0 1009103
07:00+30з23580 0.0 1010131
10:00+39зюз69160 0.0 1010917
13:00+43зюз910110 0.0 10081849
16:00+45зюз910100 0.0 10063308
19:00+41зюз610125 0.0 1006473
22:00+29ссв1419534 0.1 1011498
16 августа, вт
вт1601:00+30ссв913450 0.1 1012595
04:00+29в47580 0.0 1010207
07:00+29ссв55605 0.0 1011305
10:00+33всв22475 0.0 1012384
13:00+36всв43354 0.0 1011479
16:00+37всв66300 0.0 1010274
19:00+33юв69440 0.0 1010189
22:00+31всв68653 0.0 1013282
17 августа, ср
ср1701:00+30в57713 0.0 1012252
04:00+29в45724 0.0 1011192
07:00+30в45675 0.0 1012286
10:00+34юв464159 0.0 1012427
13:00+36всв763611 0.0 1010294
16:00+35всв79499 0.0 1009299
19:00+34вюв694522 0.0 1009267
22:00+33юв712422 0.0 1011273
18 августа, чт
чт1801:00+33юв715320 0.0 1010308
04:00+31в36385 0.0 1009173
07:00+31всв23455 0.0 101183
10:00+40юз471839 0.0 1011984
13:00+43юв251513 0.0 10081872
16:00+40в772413 0.0 1007564
19:00+36вюв812343 0.0 1007218
22:00+35юв815273 0.0 1008302
19 августа, пт
пт1901:00+34ююв6132245 0.0 1008260
04:00+30ссв7105415 0.0 1010253
07:00+29всв897481 0.0 1012457
10:00+31всв986810 0.0 1014836
13:00+31в986214 0.0 1013773
16:00+31в1011600 0.0 1012663
19:00+29всв1114660 0.0 1012688
22:00+28всв1013630 0.0 1015822